铱星星座 174星 (IRIDIUM 174)

导读

IRIDIUM 174是美国铱星星座(Iridium)的一颗低轨通信卫星,于北京时间2023年5月20日8时成功发射。铱星星座是全球首个低轨个人卫星移动通信系统,采用极地圆轨道设计,轨道高度约780公里,具备星际链路交换能力。IRIDIUM 174主要承担补充铱星星座组网,为全球偏远地区、海洋、极地及航空航海领域提供稳定的语音与数据通信服务,同时支持应急救援、物联网连接等应用,进一步增强了铱星系统的通信覆盖可靠性。

基本信息
目录编号:
56728
目录名称:
IRIDIUM 174
国际标识:
2023-068U
轨道中心:
EARTH
卫星名称:
铱星星座 174星
卫星全名:
铱星星座 174星 (IRIDIUM 174)
卫星状态:
在轨 (已飞行1123 天)
发射日期:
2023-05-20 UTC
国别 :
美国 (US)
星等 :
--
轨道信息
数据来源 国际轨道数据 AOE轨道数据
星历时间 2026-06-16T09:34:02+0800
11小时前
查看轨道信息
2026-06-16T18:00:00+0800
3小时前
查看轨道信息
半长轴 7031.992km 7031.997km
偏心率 0.0002468 0.0002417
轨道倾角 86.610° 86.611°
近地点辐角 84.037° 86.200°
升交点赤经 354.160° 354.011°
平近点角 276.113° 335.006°
近地点 652.119km 652.16km
远地点 655.591km 655.56km
周期 97.809分钟 97.809分钟
每日圈数 14.722626 14.722611
详细信息
平衡模式:
三轴稳定
覆盖范围:
全球
运营商:
铱星通信公司
运营商所在国:
美国
制造商(研发单位):
阿莱尼亚宇航公司
制造商所在国:
意大利
使用方式:
暂无
卫星简介
铱星(Iridium)是由共66个运作中的通信卫星组成的卫星通信系统。这个系统原本规划77个通信卫星,所以用原子序数为77的铱元素来命名。铱卫星允许人们使用手持型电子设备进行全球性的语音及数据通讯。该卫星仍在工作。
2D轨道图
3D轨道图
轨道高度分析图
轨道倾角分析图
轨道综合分析图
查看轨道综合分析图